LA8QT Lodingen NO current weather conditions

sailwx.info

Wind from 266

Air temperature 1.7° C
Dewpoint -0.3° C

Last reported at 2014-Oct-22 23:43 UTC.
Time now 2014-Oct-23 00:47 UTC

Location: N 68°28' E 016°04'.
View on Google Maps.

See reports from other nearby stations

  
Tides and Currents Weather Stations Pressure Air Temp Water Temp Dewpoint Dewpoint Depression Visibility Wind Speed Wind Dir Waves Ship Positions
date/time (UTC)wind fromknots sea level pressurealtimeterstation pressurevisibilityair tempwater tempwave heightnotes
2014-Oct-22 23:43 266 1.7
2014-Oct-22 23:28 265 1.7
2014-Oct-22 23:12 266 2.2
2014-Oct-22 22:57 265 2.2
2014-Oct-22 22:42 266 0 2.2
2014-Oct-22 22:27 264 0 1.7
2014-Oct-22 22:12 248 1 1.7
2014-Oct-22 21:57 218 1 2.2
2014-Oct-22 21:42 212 3 2.2
2014-Oct-22 21:27 256 4 1.7
2014-Oct-22 21:12 241 1 1.7
2014-Oct-22 20:57 234 3 1.7
2014-Oct-22 20:42 237 6 2.2
2014-Oct-22 20:27 216 6 2.2
2014-Oct-22 20:12 215 10 2.8
2014-Oct-22 19:57 210 12 3.3
2014-Oct-22 19:42 205 11 3.3
2014-Oct-22 19:27 219 12 3.3
2014-Oct-22 19:12 224 13 3.3
2014-Oct-22 18:57 210 12 3.9
2014-Oct-22 18:42 220 11 3.9
2014-Oct-22 18:27 197 13 3.9
2014-Oct-22 18:12 193 17 3.3
2014-Oct-22 17:57 220 19 3.9
2014-Oct-22 17:42 197 20 3.9
2014-Oct-22 17:27 198 21 3.9
2014-Oct-22 17:12 201 19 3.9
2014-Oct-22 16:57 197 19 3.9
2014-Oct-22 16:42 205 18 4.4
2014-Oct-22 16:27 206 19 4.4
2014-Oct-22 16:12 205 17 4.4
2014-Oct-22 15:57 206 17 5.0
2014-Oct-22 15:42 222 17 5.0
2014-Oct-22 15:27 211 16 5.0
2014-Oct-22 15:12 182 19 5.0
2014-Oct-22 14:57 186 16 5.0
2014-Oct-22 14:42 211 16 5.6
2014-Oct-22 14:27 211 15 5.6
2014-Oct-22 14:12 218 13 5.6
2014-Oct-22 13:56 214 16 5.6
2014-Oct-22 13:41 247 14 5.6
2014-Oct-22 13:26 222 15 5.6
2014-Oct-22 13:11 214 13 5.6
2014-Oct-22 12:56 205 16 5.6
2014-Oct-22 12:41 208 13 5.6
2014-Oct-22 12:26 213 13 5.6
2014-Oct-22 12:11 197 13 5.6
2014-Oct-22 11:56 220 12 6.1
2014-Oct-22 11:41 236 13 6.1
2014-Oct-22 11:26 215 10 6.1
2014-Oct-22 11:11 209 10 5.6
2014-Oct-22 10:56 211 12 5.6
2014-Oct-22 10:41 205 10 5.6
2014-Oct-22 10:26 203 9 5.6
2014-Oct-22 10:11 232 10 5.6
2014-Oct-22 09:56 236 10 5.6
2014-Oct-22 09:41 205 11 5.6
2014-Oct-22 09:26 222 10 5.6
2014-Oct-22 09:11 195 10 5.6
2014-Oct-22 08:56 217 8 5.0
2014-Oct-22 08:41 214 5 5.0
2014-Oct-22 08:26 214 6 5.0
2014-Oct-22 08:11 204 6 5.0
2014-Oct-22 07:56 233 6 5.0
2014-Oct-22 07:41 220 6 4.4
2014-Oct-22 07:26 230 4 4.4
2014-Oct-22 07:11 235 2 4.4
2014-Oct-22 06:56 237 5 4.4
2014-Oct-22 06:41 243 3 3.9
2014-Oct-22 06:26 240 4 4.4
2014-Oct-22 06:11 218 3 3.9
2014-Oct-22 05:56 211 2 3.9
2014-Oct-22 05:41 233 1 3.9
2014-Oct-22 05:26 257 2 3.9
2014-Oct-22 05:11 253 1 3.9
2014-Oct-22 04:56 241 1 3.9
2014-Oct-22 04:41 247 2 3.9
2014-Oct-22 04:26 246 1 4.4
2014-Oct-22 04:11 234 2 4.4
2014-Oct-22 03:56 221 2 4.4
2014-Oct-22 03:41 235 5 4.4
2014-Oct-22 03:26 233 5 4.4
2014-Oct-22 03:11 222 8 5.0
2014-Oct-22 02:56 228 9 5.0
2014-Oct-22 02:41 223 8 5.0
2014-Oct-22 02:26 210 6 5.0
2014-Oct-22 02:11 227 6 5.0
2014-Oct-22 01:56 230 8 5.0
2014-Oct-22 01:41 220 7 5.0
2014-Oct-22 01:26 222 8 5.0
2014-Oct-22 01:11 230 7 5.0
2014-Oct-22 00:56 229 9 5.0
2014-Oct-22 00:41 221 11 5.0
2014-Oct-22 00:25 230 10 5.0
2014-Oct-22 00:10 230 6 4.4
2014-Oct-21 23:55 229 5 4.4
2014-Oct-21 23:40 239 6 5.0
2014-Oct-21 23:25 216 5 5.0
2014-Oct-21 23:10 232 5 5.0
2014-Oct-21 22:55 236 4 4.4
2014-Oct-21 22:40 218 3 3.9
2014-Oct-21 22:25 197 3 3.9
2014-Oct-21 22:10 187 2 3.9
2014-Oct-21 21:55 179 1 3.3
2014-Oct-21 21:40 178 2 3.3
2014-Oct-21 21:25 171 2 3.3
2014-Oct-21 21:10 171 0 3.9
2014-Oct-21 20:55 171 3.3
2014-Oct-21 20:40 171 0 2.8
2014-Oct-21 20:26 171 2.2
2014-Oct-21 20:10 171 2.8
2014-Oct-21 19:55 170 2.2
2014-Oct-21 19:40 171 2.2
2014-Oct-21 19:25 171 2.2
2014-Oct-21 19:10 170 2.8
2014-Oct-21 18:55 170 2.2
2014-Oct-21 18:40 171 2.8
2014-Oct-21 18:25 170 0 2.2
2014-Oct-21 18:10 170 3 1.7
2014-Oct-21 17:55 170 3 1.7
2014-Oct-21 17:40 170 2.2
2014-Oct-21 17:25 170 2.8
2014-Oct-21 17:10 171 2.8
2014-Oct-21 16:55 171 0 2.8
2014-Oct-21 16:40 170 2.8
2014-Oct-21 16:25 170 2.8
2014-Oct-21 16:10 170 2.8
2014-Oct-21 15:55 170 3.9
2014-Oct-21 15:40 170 2 4.4
2014-Oct-21 15:25 171 4.4
2014-Oct-21 15:10 171 3 5.0
2014-Oct-21 14:55 170 3 5.0
2014-Oct-21 14:40 171 4 5.0
2014-Oct-21 14:25 171 4 5.0
2014-Oct-21 14:10 173 2 5.6
2014-Oct-21 13:55 173 0 5.6
2014-Oct-21 13:40 173 3 5.6
2014-Oct-21 13:25 175 3 5.6
2014-Oct-21 13:10 187 4 6.1
2014-Oct-21 12:55 186 3 6.1
2014-Oct-21 12:40 188 2 6.1
2014-Oct-21 12:25 187 3 6.1
2014-Oct-21 12:10 188 4 6.1
2014-Oct-21 11:55 193 4 6.1
2014-Oct-21 11:40 193 6 6.1
2014-Oct-21 11:25 181 5 6.1
2014-Oct-21 11:10 195 4 6.1
2014-Oct-21 10:55 196 5 6.1
2014-Oct-21 10:39 195 6 6.1
2014-Oct-21 10:24 197 7 6.1
2014-Oct-21 10:09 178 6 6.1
2014-Oct-21 09:54 089 0 6.1
2014-Oct-21 09:39 088 0 6.1
2014-Oct-21 09:24 063 5.6
2014-Oct-21 09:09 063 5.6
2014-Oct-21 08:54 063 5.6
2014-Oct-21 08:39 063 5.6
2014-Oct-21 08:24 064 0 5.6
2014-Oct-21 08:09 064 5.6
2014-Oct-21 07:54 064 5.6
2014-Oct-21 07:39 063 2 4.4
2014-Oct-21 07:24 039 0 3.9
2014-Oct-21 07:09 039 1 3.9
2014-Oct-21 06:54 039 2.8
2014-Oct-21 06:39 039 2.8
2014-Oct-21 06:24 039 3.3
2014-Oct-21 06:09 039 3.3
2014-Oct-21 05:54 039 2.8
2014-Oct-21 05:39 039 2.8
2014-Oct-21 05:24 039 0 2.8
2014-Oct-21 05:09 039 2.8
2014-Oct-21 04:54 039 2.8
2014-Oct-21 04:39 039 2.8
2014-Oct-21 04:24 039 2.2
2014-Oct-21 04:09 039 1 2.2
2014-Oct-21 03:54 039 2.2
2014-Oct-21 03:39 039 0 2.2
2014-Oct-21 03:24 039 2.2
2014-Oct-21 03:09 039 2.2
2014-Oct-21 02:54 039 0 2.2
2014-Oct-21 02:39 038 0 2.2
2014-Oct-21 02:24 036 2.2
2014-Oct-21 02:09 036 1.1
2014-Oct-21 01:54 036 0.6
2014-Oct-21 01:39 036 1.7
2014-Oct-21 01:24 036 1.7
2014-Oct-21 01:09 036 1.7
2014-Oct-21 00:53 036 2.8
2014-Oct-21 00:38 036 2.2
2014-Oct-21 00:23 036 2.8
2014-Oct-21 00:08 036 0 2.8